Year,Month,Day,Hour,Minute,Value (Times are PST for temperature in C)
2016,08,20,00,00,22.30
2016,08,20,00,01,22.30
2016,08,20,00,02,22.30
2016,08,20,00,03,22.30
2016,08,20,00,04,22.30
2016,08,20,00,05,22.40
2016,08,20,00,06,22.40
2016,08,20,00,07,22.40
2016,08,20,00,08,22.40
2016,08,20,00,09,22.40
2016,08,20,00,10,22.40
2016,08,20,00,11,22.40
2016,08,20,00,12,22.40
2016,08,20,00,13,22.40
2016,08,20,00,14,22.40
2016,08,20,00,15,22.40
2016,08,20,00,16,22.40
2016,08,20,00,17,22.30
2016,08,20,00,18,22.30
2016,08,20,00,19,22.30
2016,08,20,00,20,22.30
2016,08,20,00,21,22.20
2016,08,20,00,22,22.20
2016,08,20,00,23,22.20
2016,08,20,00,24,22.20
2016,08,20,00,25,22.10
2016,08,20,00,26,22.10
2016,08,20,00,27,22.00
2016,08,20,00,28,22.00
2016,08,20,00,29,21.90
2016,08,20,00,30,21.90
2016,08,20,00,31,21.80
2016,08,20,00,32,21.80
2016,08,20,00,33,21.70
2016,08,20,00,34,21.70
2016,08,20,00,35,21.70
2016,08,20,00,36,21.60
2016,08,20,00,37,21.60
2016,08,20,00,38,21.60
2016,08,20,00,39,21.50
2016,08,20,00,40,21.50
2016,08,20,00,41,21.40
2016,08,20,00,42,21.30
2016,08,20,00,43,21.30
2016,08,20,00,44,21.30
2016,08,20,00,45,21.20
2016,08,20,00,46,21.20
2016,08,20,00,47,21.10
2016,08,20,00,48,21.10
2016,08,20,00,49,21.10
2016,08,20,00,50,21.00
2016,08,20,00,51,21.00
2016,08,20,00,52,21.00
2016,08,20,00,53,20.90
2016,08,20,00,54,20.90
2016,08,20,00,55,20.90
2016,08,20,00,56,20.90
2016,08,20,00,57,20.90
2016,08,20,00,58,20.80
2016,08,20,00,59,20.80
2016,08,20,01,00,20.80
2016,08,20,01,01,20.80
2016,08,20,01,02,20.80
2016,08,20,01,03,20.80
2016,08,20,01,04,20.80
2016,08,20,01,05,20.80
2016,08,20,01,06,20.80
2016,08,20,01,07,20.80
2016,08,20,01,08,20.80
2016,08,20,01,09,20.80
2016,08,20,01,10,20.90
2016,08,20,01,11,20.90
2016,08,20,01,12,20.90
2016,08,20,01,13,20.90
2016,08,20,01,14,20.90
2016,08,20,01,15,20.90
2016,08,20,01,16,20.90
2016,08,20,01,17,20.90
2016,08,20,01,18,20.90
2016,08,20,01,19,20.90
2016,08,20,01,20,20.90
2016,08,20,01,21,20.90
2016,08,20,01,22,20.90
2016,08,20,01,23,20.90
2016,08,20,01,24,20.90
2016,08,20,01,25,20.90
2016,08,20,01,26,20.90
2016,08,20,01,27,21.00
2016,08,20,01,28,21.00
2016,08,20,01,29,21.00
2016,08,20,01,30,21.00
2016,08,20,01,31,21.10
2016,08,20,01,32,21.10
2016,08,20,01,33,21.10
2016,08,20,01,34,21.10
2016,08,20,01,35,21.10
2016,08,20,01,36,21.10
2016,08,20,01,37,21.10
2016,08,20,01,38,21.10
2016,08,20,01,39,21.10
2016,08,20,01,40,21.00
2016,08,20,01,41,21.00
2016,08,20,01,42,21.00
2016,08,20,01,43,20.90
2016,08,20,01,44,20.90
2016,08,20,01,45,20.90
2016,08,20,01,46,20.90
2016,08,20,01,47,20.80
2016,08,20,01,48,20.80
2016,08,20,01,49,20.80
2016,08,20,01,50,20.80
2016,08,20,01,51,20.80
2016,08,20,01,52,20.80
2016,08,20,01,53,20.70
2016,08,20,01,54,20.70
2016,08,20,01,55,20.70
2016,08,20,01,56,20.70
2016,08,20,01,57,20.70
2016,08,20,01,58,20.70
2016,08,20,01,59,20.70
2016,08,20,02,00,20.70
2016,08,20,02,01,20.70
2016,08,20,02,02,20.70
2016,08,20,02,03,20.70
2016,08,20,02,04,20.70
2016,08,20,02,05,20.70
2016,08,20,02,06,20.70
2016,08,20,02,07,20.70
2016,08,20,02,08,20.70
2016,08,20,02,09,20.80
2016,08,20,02,10,20.80
2016,08,20,02,11,20.80
2016,08,20,02,12,20.80
2016,08,20,02,13,20.80
2016,08,20,02,14,20.80
2016,08,20,02,15,20.80
2016,08,20,02,16,20.80
2016,08,20,02,17,20.80
2016,08,20,02,18,20.80
2016,08,20,02,19,20.80
2016,08,20,02,20,20.80
2016,08,20,02,21,20.80
2016,08,20,02,22,20.80
2016,08,20,02,23,20.80
2016,08,20,02,24,20.80
2016,08,20,02,25,20.80
2016,08,20,02,26,20.90
2016,08,20,02,27,20.90
2016,08,20,02,28,20.90
2016,08,20,02,29,20.90
2016,08,20,02,30,20.90
2016,08,20,02,31,20.90
2016,08,20,02,32,20.90
2016,08,20,02,33,20.90
2016,08,20,02,34,20.90
2016,08,20,02,35,20.90
2016,08,20,02,36,20.80
2016,08,20,02,37,20.80
2016,08,20,02,38,20.80
2016,08,20,02,39,20.80
2016,08,20,02,40,20.80
2016,08,20,02,41,20.80
2016,08,20,02,42,20.80
2016,08,20,02,43,20.80
2016,08,20,02,44,20.80
2016,08,20,02,45,20.80
2016,08,20,02,46,20.80
2016,08,20,02,47,20.80
2016,08,20,02,48,20.80
2016,08,20,02,49,20.80
2016,08,20,02,50,20.80
2016,08,20,02,51,20.80
2016,08,20,02,52,20.80
2016,08,20,02,53,20.80
2016,08,20,02,54,20.80
2016,08,20,02,55,20.80
2016,08,20,02,56,20.80
2016,08,20,02,57,20.80
2016,08,20,02,58,20.80
2016,08,20,02,59,20.80
2016,08,20,03,00,20.70
2016,08,20,03,01,20.70
2016,08,20,03,02,20.70
2016,08,20,03,03,20.70
2016,08,20,03,04,20.70
2016,08,20,03,05,20.70
2016,08,20,03,06,20.70
2016,08,20,03,07,20.70
2016,08,20,03,08,20.70
2016,08,20,03,09,20.70
2016,08,20,03,10,20.70
2016,08,20,03,11,20.70
2016,08,20,03,12,20.70
2016,08,20,03,13,20.70
2016,08,20,03,14,20.70
2016,08,20,03,15,20.70
2016,08,20,03,16,20.70
2016,08,20,03,17,20.70
2016,08,20,03,18,20.70
2016,08,20,03,19,20.70
2016,08,20,03,20,20.70
2016,08,20,03,21,20.70
2016,08,20,03,22,20.70
2016,08,20,03,23,20.70
2016,08,20,03,24,20.70
2016,08,20,03,25,20.70
2016,08,20,03,26,20.70
2016,08,20,03,27,20.70
2016,08,20,03,28,20.70
2016,08,20,03,29,20.70
2016,08,20,03,30,20.70
2016,08,20,03,31,20.70
2016,08,20,03,32,20.70
2016,08,20,03,33,20.70
2016,08,20,03,34,20.70
2016,08,20,03,35,20.70
2016,08,20,03,36,20.70
2016,08,20,03,37,20.70
2016,08,20,03,38,20.70
2016,08,20,03,39,20.70
2016,08,20,03,40,20.70
2016,08,20,03,41,20.70
2016,08,20,03,42,20.70
2016,08,20,03,43,20.70
2016,08,20,03,44,20.70
2016,08,20,03,45,20.70
2016,08,20,03,46,20.60
2016,08,20,03,47,20.60
2016,08,20,03,48,20.60
2016,08,20,03,49,20.60
2016,08,20,03,50,20.60
2016,08,20,03,51,20.60
2016,08,20,03,52,20.60
2016,08,20,03,53,20.60
2016,08,20,03,54,20.50
2016,08,20,03,55,20.50
2016,08,20,03,56,20.50
2016,08,20,03,57,20.50
2016,08,20,03,58,20.50
2016,08,20,03,59,20.40
2016,08,20,04,00,20.40
2016,08,20,04,01,20.40
2016,08,20,04,02,20.40
2016,08,20,04,03,20.40
2016,08,20,04,04,20.40
2016,08,20,04,05,20.40
2016,08,20,04,06,20.40
2016,08,20,04,07,20.40
2016,08,20,04,08,20.40
2016,08,20,04,09,20.40
2016,08,20,04,10,20.40
2016,08,20,04,11,20.40
2016,08,20,04,12,20.40
2016,08,20,04,13,20.40
2016,08,20,04,14,20.40
2016,08,20,04,15,20.40
2016,08,20,04,16,20.40
2016,08,20,04,17,20.40
2016,08,20,04,18,20.40
2016,08,20,04,19,20.50
2016,08,20,04,20,20.50
2016,08,20,04,21,20.50
2016,08,20,04,22,20.50
2016,08,20,04,23,20.50
2016,08,20,04,24,20.50
2016,08,20,04,25,20.50
2016,08,20,04,26,20.50
2016,08,20,04,27,20.50
2016,08,20,04,28,20.60
2016,08,20,04,29,20.60
2016,08,20,04,30,20.60
2016,08,20,04,31,20.60
2016,08,20,04,32,20.70
2016,08,20,04,33,20.70
2016,08,20,04,34,20.80
2016,08,20,04,35,20.80
2016,08,20,04,36,20.80
2016,08,20,04,37,20.90
2016,08,20,04,38,20.90
2016,08,20,04,39,20.90
2016,08,20,04,40,20.90
2016,08,20,04,41,20.90
2016,08,20,04,42,20.90
2016,08,20,04,43,20.90
2016,08,20,04,44,20.90
2016,08,20,04,45,20.90
2016,08,20,04,46,20.90
2016,08,20,04,47,20.90
2016,08,20,04,48,20.90
2016,08,20,04,49,20.90
2016,08,20,04,50,20.90
2016,08,20,04,51,20.90
2016,08,20,04,52,20.90
2016,08,20,04,53,20.80
2016,08,20,04,54,20.80
2016,08,20,04,55,20.80
2016,08,20,04,56,20.80
2016,08,20,04,57,20.80
2016,08,20,04,58,20.80
2016,08,20,04,59,20.70
2016,08,20,05,00,20.70
2016,08,20,05,01,20.70
2016,08,20,05,02,20.70
2016,08,20,05,03,20.70
2016,08,20,05,04,20.60
2016,08,20,05,05,20.60
2016,08,20,05,06,20.60
2016,08,20,05,07,20.60
2016,08,20,05,08,20.60
2016,08,20,05,09,20.50
2016,08,20,05,10,20.50
2016,08,20,05,11,20.50
2016,08,20,05,12,20.40
2016,08,20,05,13,20.40
2016,08,20,05,14,20.40
2016,08,20,05,15,20.40
2016,08,20,05,16,20.30
2016,08,20,05,17,20.30
2016,08,20,05,18,20.30
2016,08,20,05,19,20.20
2016,08,20,05,20,20.20
2016,08,20,05,21,20.20
2016,08,20,05,22,20.20
2016,08,20,05,23,20.10
2016,08,20,05,24,20.10
2016,08,20,05,25,20.10
2016,08,20,05,26,20.10
2016,08,20,05,27,20.00
2016,08,20,05,28,20.00
2016,08,20,05,29,20.00
2016,08,20,05,30,19.90
2016,08,20,05,31,19.90
2016,08,20,05,32,19.80
2016,08,20,05,33,19.80
2016,08,20,05,34,19.80
2016,08,20,05,35,19.70
2016,08,20,05,36,19.70
2016,08,20,05,37,19.60
2016,08,20,05,38,19.60
2016,08,20,05,39,19.50
2016,08,20,05,40,19.50
2016,08,20,05,41,19.40
2016,08,20,05,42,19.40
2016,08,20,05,43,19.30
2016,08,20,05,44,19.20
2016,08,20,05,45,19.20
2016,08,20,05,46,19.10
2016,08,20,05,47,19.00
2016,08,20,05,48,18.90
2016,08,20,05,49,18.90
2016,08,20,05,50,18.80
2016,08,20,05,51,18.80
2016,08,20,05,52,18.70
2016,08,20,05,53,18.70
2016,08,20,05,54,18.60
2016,08,20,05,55,18.60
2016,08,20,05,56,18.50
2016,08,20,05,57,18.50
2016,08,20,05,58,18.50
2016,08,20,05,59,18.40
2016,08,20,06,00,18.40
2016,08,20,06,01,18.40
2016,08,20,06,02,18.40
2016,08,20,06,03,18.30
2016,08,20,06,04,18.30
2016,08,20,06,05,18.30
2016,08,20,06,06,18.20
2016,08,20,06,07,18.20
2016,08,20,06,08,18.20
2016,08,20,06,09,18.20
2016,08,20,06,10,18.20
2016,08,20,06,11,18.10
2016,08,20,06,12,18.10
2016,08,20,06,13,18.10
2016,08,20,06,14,18.10
2016,08,20,06,15,18.10
2016,08,20,06,16,18.10
2016,08,20,06,17,18.10
2016,08,20,06,18,18.10
2016,08,20,06,19,18.20
2016,08,20,06,20,18.20
2016,08,20,06,21,18.20
2016,08,20,06,22,18.20
2016,08,20,06,23,18.20
2016,08,20,06,24,18.20
2016,08,20,06,25,18.20
2016,08,20,06,26,18.20
2016,08,20,06,27,18.20
2016,08,20,06,28,18.20
2016,08,20,06,29,18.30
2016,08,20,06,30,18.30
2016,08,20,06,31,18.30
2016,08,20,06,32,18.30
2016,08,20,06,33,18.30
2016,08,20,06,34,18.30
2016,08,20,06,35,18.30
2016,08,20,06,36,18.40
2016,08,20,06,37,18.40
2016,08,20,06,38,18.40
2016,08,20,06,39,18.40
2016,08,20,06,40,18.40
2016,08,20,06,41,18.40
2016,08,20,06,42,18.40
2016,08,20,06,43,18.40
2016,08,20,06,44,18.50
2016,08,20,06,45,18.50
2016,08,20,06,46,18.50
2016,08,20,06,47,18.60
2016,08,20,06,48,18.60
2016,08,20,06,49,18.60
2016,08,20,06,50,18.60
2016,08,20,06,51,18.60
2016,08,20,06,52,18.60
2016,08,20,06,53,18.70
2016,08,20,06,54,18.70
2016,08,20,06,55,18.70
2016,08,20,06,56,18.70
2016,08,20,06,57,18.70
2016,08,20,06,58,18.70
2016,08,20,06,59,18.70
2016,08,20,07,00,18.70
2016,08,20,07,01,18.70
2016,08,20,07,02,18.80
2016,08,20,07,03,18.80
2016,08,20,07,04,18.80
2016,08,20,07,05,18.80
2016,08,20,07,06,18.80
2016,08,20,07,07,18.80
2016,08,20,07,08,18.80
2016,08,20,07,09,18.90
2016,08,20,07,10,18.90
2016,08,20,07,11,18.90
2016,08,20,07,12,18.90
2016,08,20,07,13,18.90
2016,08,20,07,14,18.90
2016,08,20,07,15,18.90
2016,08,20,07,16,18.90
2016,08,20,07,17,19.00
2016,08,20,07,18,19.00
2016,08,20,07,19,19.00
2016,08,20,07,20,19.00
2016,08,20,07,21,19.00
2016,08,20,07,22,19.00
2016,08,20,07,23,19.00
2016,08,20,07,24,19.00
2016,08,20,07,25,19.10
2016,08,20,07,26,19.10
2016,08,20,07,27,19.10
2016,08,20,07,28,19.20
2016,08,20,07,29,19.20
2016,08,20,07,30,19.30
2016,08,20,07,31,19.40
2016,08,20,07,32,19.40
2016,08,20,07,33,19.50
2016,08,20,07,34,19.50
2016,08,20,07,35,19.60
2016,08,20,07,36,19.70
2016,08,20,07,37,19.70
2016,08,20,07,38,19.80
2016,08,20,07,39,19.80
2016,08,20,07,40,19.80
2016,08,20,07,41,19.90
2016,08,20,07,42,19.90
2016,08,20,07,43,19.90
2016,08,20,07,44,20.00
2016,08,20,07,45,20.00
2016,08,20,07,46,20.10
2016,08,20,07,47,20.10
2016,08,20,07,48,20.10
2016,08,20,07,49,20.10
2016,08,20,07,50,20.10
2016,08,20,07,51,20.10
2016,08,20,07,52,20.20
2016,08,20,07,53,20.20
2016,08,20,07,54,20.20
2016,08,20,07,55,20.20
2016,08,20,07,56,20.20
2016,08,20,07,57,20.20
2016,08,20,07,58,20.20
2016,08,20,07,59,20.30
2016,08,20,08,00,20.30
2016,08,20,08,01,20.30
2016,08,20,08,02,20.30
2016,08,20,08,03,20.30
2016,08,20,08,04,20.30
2016,08,20,08,05,20.40
2016,08,20,08,06,20.40
2016,08,20,08,07,20.40
2016,08,20,08,08,20.40
2016,08,20,08,09,20.40
2016,08,20,08,10,20.40
2016,08,20,08,11,20.50
2016,08,20,08,12,20.50
2016,08,20,08,13,20.50
2016,08,20,08,14,20.50
2016,08,20,08,15,20.60
2016,08,20,08,16,20.60
2016,08,20,08,17,20.60
2016,08,20,08,18,20.60
2016,08,20,08,19,20.70
2016,08,20,08,20,20.70
2016,08,20,08,21,20.70
2016,08,20,08,22,20.70
2016,08,20,08,23,20.70
2016,08,20,08,24,20.70
2016,08,20,08,25,20.70
2016,08,20,08,26,20.70
2016,08,20,08,27,20.70
2016,08,20,08,28,20.70
2016,08,20,08,29,20.70
2016,08,20,08,30,20.70
2016,08,20,08,31,20.70
2016,08,20,08,32,20.70
2016,08,20,08,33,20.70
2016,08,20,08,34,20.70
2016,08,20,08,35,20.70
2016,08,20,08,36,20.80
2016,08,20,08,37,20.80
2016,08,20,08,38,20.80
2016,08,20,08,39,20.80
2016,08,20,08,40,20.90
2016,08,20,08,41,20.90
2016,08,20,08,42,21.00
2016,08,20,08,43,21.00
2016,08,20,08,44,21.00
2016,08,20,08,45,21.10
2016,08,20,08,46,21.10
2016,08,20,08,47,21.10
2016,08,20,08,48,21.10
2016,08,20,08,49,21.10
2016,08,20,08,50,21.10
2016,08,20,08,51,21.10
2016,08,20,08,52,21.10
2016,08,20,08,53,21.10
2016,08,20,08,54,21.10
2016,08,20,08,55,21.20
2016,08,20,08,56,21.20
2016,08,20,08,57,21.20
2016,08,20,08,58,21.30
2016,08,20,08,59,21.30
2016,08,20,09,00,21.40
2016,08,20,09,01,21.40
2016,08,20,09,02,21.40
2016,08,20,09,03,21.40
2016,08,20,09,04,21.40
2016,08,20,09,05,21.40
2016,08,20,09,06,21.40
2016,08,20,09,07,21.40
2016,08,20,09,08,21.50
2016,08,20,09,09,21.50
2016,08,20,09,10,21.50
2016,08,20,09,11,21.60
2016,08,20,09,12,21.60
2016,08,20,09,13,21.60
2016,08,20,09,14,21.60
2016,08,20,09,15,21.60
2016,08,20,09,16,21.60
2016,08,20,09,17,21.60
2016,08,20,09,18,21.60
2016,08,20,09,19,21.60
2016,08,20,09,20,21.60
2016,08,20,09,21,21.60
2016,08,20,09,22,21.60
2016,08,20,09,23,21.60
2016,08,20,09,24,21.60
2016,08,20,09,25,21.70
2016,08,20,09,26,21.70
2016,08,20,09,27,21.70
2016,08,20,09,28,21.80
2016,08,20,09,29,21.80
2016,08,20,09,30,21.90
2016,08,20,09,31,22.00
2016,08,20,09,32,22.00
2016,08,20,09,33,22.10
2016,08,20,09,34,22.10
2016,08,20,09,35,22.10
2016,08,20,09,36,22.20
2016,08,20,09,37,22.20
2016,08,20,09,38,22.20
2016,08,20,09,39,22.20
2016,08,20,09,40,22.30
2016,08,20,09,41,22.30
2016,08,20,09,42,22.30
2016,08,20,09,43,22.30
2016,08,20,09,44,22.30
2016,08,20,09,45,22.30
2016,08,20,09,46,22.30
2016,08,20,09,47,22.40
2016,08,20,09,48,22.40
2016,08,20,09,49,22.50
2016,08,20,09,50,22.50
2016,08,20,09,51,22.50
2016,08,20,09,52,22.60
2016,08,20,09,53,22.60
2016,08,20,09,54,22.60
2016,08,20,09,55,22.70
2016,08,20,09,56,22.70
2016,08,20,09,57,22.70
2016,08,20,09,58,22.70
2016,08,20,09,59,22.70
2016,08,20,10,00,22.70
2016,08,20,10,01,22.70
2016,08,20,10,02,22.70
2016,08,20,10,03,22.70
2016,08,20,10,04,22.70
2016,08,20,10,05,22.70
2016,08,20,10,06,22.80
2016,08,20,10,07,22.80
2016,08,20,10,08,22.80
2016,08,20,10,09,22.80
2016,08,20,10,10,22.80
2016,08,20,10,11,22.80
2016,08,20,10,12,22.80
2016,08,20,10,13,22.80
2016,08,20,10,14,22.80
2016,08,20,10,15,22.80
2016,08,20,10,16,22.70
2016,08,20,10,17,22.70
2016,08,20,10,18,22.70
2016,08,20,10,19,22.60
2016,08,20,10,20,22.60
2016,08,20,10,21,22.60
2016,08,20,10,22,22.50
2016,08,20,10,23,22.50
2016,08,20,10,24,22.40
2016,08,20,10,25,22.40
2016,08,20,10,26,22.40
2016,08,20,10,27,22.40
2016,08,20,10,28,22.40
2016,08,20,10,29,22.40
2016,08,20,10,30,22.40
2016,08,20,10,31,22.40
2016,08,20,10,32,22.40
2016,08,20,10,33,22.40
2016,08,20,10,34,22.40
2016,08,20,10,35,22.40
2016,08,20,10,36,22.40
2016,08,20,10,37,22.50
2016,08,20,10,38,22.50
2016,08,20,10,39,22.60
2016,08,20,10,40,22.70
2016,08,20,10,41,22.80
2016,08,20,10,42,22.90
2016,08,20,10,43,22.90
2016,08,20,10,44,22.90
2016,08,20,10,45,22.90
2016,08,20,10,46,22.90
2016,08,20,10,47,22.90
2016,08,20,10,48,22.90
2016,08,20,10,49,22.80
2016,08,20,10,50,22.80
2016,08,20,10,51,22.80
2016,08,20,10,52,22.90
2016,08,20,10,53,22.90
2016,08,20,10,54,22.90
2016,08,20,10,55,22.80
2016,08,20,10,56,22.80
2016,08,20,10,57,22.80
2016,08,20,10,58,22.80
2016,08,20,10,59,22.80
2016,08,20,11,00,22.80
2016,08,20,11,01,22.80
2016,08,20,11,02,22.80
2016,08,20,11,03,22.80
2016,08,20,11,04,22.80
2016,08,20,11,05,22.80
2016,08,20,11,06,22.90
2016,08,20,11,07,22.90
2016,08,20,11,08,23.10
2016,08,20,11,09,23.20
2016,08,20,11,10,23.30
2016,08,20,11,11,23.30
2016,08,20,11,12,23.30
2016,08,20,11,13,23.30
2016,08,20,11,14,23.30
2016,08,20,11,15,23.30
2016,08,20,11,16,23.30
2016,08,20,11,17,23.30
2016,08,20,11,18,23.20
2016,08,20,11,19,23.20
2016,08,20,11,20,23.30
2016,08,20,11,21,23.40
2016,08,20,11,22,23.50
2016,08,20,11,23,23.60
2016,08,20,11,24,23.60
2016,08,20,11,25,23.70
2016,08,20,11,26,23.80
2016,08,20,11,27,23.90
2016,08,20,11,28,24.00
2016,08,20,11,29,24.10
2016,08,20,11,30,24.20
2016,08,20,11,31,24.30
2016,08,20,11,32,24.40
2016,08,20,11,33,24.50
2016,08,20,11,34,24.50
2016,08,20,11,35,24.60
2016,08,20,11,36,24.70
2016,08,20,11,37,24.80
2016,08,20,11,38,24.90
2016,08,20,11,39,24.90
2016,08,20,11,40,24.90
2016,08,20,11,41,24.90
2016,08,20,11,42,24.80
2016,08,20,11,43,24.80
2016,08,20,11,44,24.80
2016,08,20,11,45,24.70
2016,08,20,11,46,24.70
2016,08,20,11,47,24.70
2016,08,20,11,48,24.60
2016,08,20,11,49,24.60
2016,08,20,11,50,24.60
2016,08,20,11,51,24.60
2016,08,20,11,52,24.60
2016,08,20,11,53,24.60
2016,08,20,11,54,24.50
2016,08,20,11,55,24.50
2016,08,20,11,56,24.50
2016,08,20,11,57,24.60
2016,08,20,11,58,24.70
2016,08,20,11,59,24.70
2016,08,20,12,00,24.80
2016,08,20,12,01,24.80
2016,08,20,12,02,24.80
2016,08,20,12,03,24.80
2016,08,20,12,04,24.80
2016,08,20,12,05,24.80
2016,08,20,12,06,24.80
2016,08,20,12,07,24.80
2016,08,20,12,08,24.80
2016,08,20,12,09,24.80
2016,08,20,12,10,24.80
2016,08,20,12,11,24.80
2016,08,20,12,12,24.80
2016,08,20,12,13,24.80
2016,08,20,12,14,24.70
2016,08,20,12,15,24.70
2016,08,20,12,16,24.70
2016,08,20,12,17,24.70
2016,08,20,12,18,24.70
2016,08,20,12,19,24.80
2016,08,20,12,20,24.80
2016,08,20,12,21,24.80
2016,08,20,12,22,24.80
2016,08,20,12,23,24.80
2016,08,20,12,24,24.80
2016,08,20,12,25,24.90
2016,08,20,12,26,24.90
2016,08,20,12,27,24.90
2016,08,20,12,28,24.90
2016,08,20,12,29,24.80
2016,08,20,12,30,24.80
2016,08,20,12,31,24.70
2016,08,20,12,32,24.70
2016,08,20,12,33,24.70
2016,08,20,12,34,24.70
2016,08,20,12,35,24.70
2016,08,20,12,36,24.70
2016,08,20,12,37,24.70
2016,08,20,12,38,24.70
2016,08,20,12,39,24.70
2016,08,20,12,40,24.70
2016,08,20,12,41,24.70
2016,08,20,12,42,24.70
2016,08,20,12,43,24.70
2016,08,20,12,44,24.70
2016,08,20,12,45,24.70
2016,08,20,12,46,24.70
2016,08,20,12,47,24.70
2016,08,20,12,48,24.70
2016,08,20,12,49,24.60
2016,08,20,12,50,24.60
2016,08,20,12,51,24.60
2016,08,20,12,52,24.60
2016,08,20,12,53,24.70
2016,08,20,12,54,24.70
2016,08,20,12,55,24.90
2016,08,20,12,56,25.00
2016,08,20,12,57,25.10
2016,08,20,12,58,25.10
2016,08,20,12,59,25.10
2016,08,20,13,00,25.10
2016,08,20,13,01,25.10
2016,08,20,13,02,25.00
2016,08,20,13,03,25.00
2016,08,20,13,04,24.90
2016,08,20,13,05,24.90
2016,08,20,13,06,24.90
2016,08,20,13,07,24.90
2016,08,20,13,08,24.90
2016,08,20,13,09,24.90
2016,08,20,13,10,24.90
2016,08,20,13,11,24.90
2016,08,20,13,12,24.90
2016,08,20,13,13,24.90
2016,08,20,13,14,24.80
2016,08,20,13,15,24.80
2016,08,20,13,16,24.80
2016,08,20,13,17,24.70
2016,08,20,13,18,24.70
2016,08,20,13,19,24.70
2016,08,20,13,20,24.70
2016,08,20,13,21,24.80
2016,08,20,13,22,24.90
2016,08,20,13,23,25.00
2016,08,20,13,24,25.10
2016,08,20,13,25,25.20
2016,08,20,13,26,25.30
2016,08,20,13,27,25.50
2016,08,20,13,28,25.60
2016,08,20,13,29,25.70
2016,08,20,13,30,25.80
2016,08,20,13,31,25.80
2016,08,20,13,32,25.90
2016,08,20,13,33,25.90
2016,08,20,13,34,25.90
2016,08,20,13,35,25.90
2016,08,20,13,36,25.90
2016,08,20,13,37,25.90
2016,08,20,13,38,25.90
2016,08,20,13,39,25.80
2016,08,20,13,40,25.80
2016,08,20,13,41,25.80
2016,08,20,13,42,25.80
2016,08,20,13,43,25.70
2016,08,20,13,44,25.80
2016,08,20,13,45,25.70
2016,08,20,13,46,25.80
2016,08,20,13,47,25.80
2016,08,20,13,48,25.80
2016,08,20,13,49,25.70
2016,08,20,13,50,25.80
2016,08,20,13,51,25.80
2016,08,20,13,52,25.80
2016,08,20,13,53,25.80
2016,08,20,13,54,25.80
2016,08,20,13,55,25.80
2016,08,20,13,56,25.80
2016,08,20,13,57,25.70
2016,08,20,13,58,25.70
2016,08,20,13,59,25.80
2016,08,20,14,00,25.80
2016,08,20,14,01,25.90
2016,08,20,14,02,25.90
2016,08,20,14,03,25.90
2016,08,20,14,04,25.90
2016,08,20,14,05,25.90
2016,08,20,14,06,26.00
2016,08,20,14,07,26.00
2016,08,20,14,08,26.10
2016,08,20,14,09,26.10
2016,08,20,14,10,26.10
2016,08,20,14,11,26.10
2016,08,20,14,12,26.20
2016,08,20,14,13,26.20
2016,08,20,14,14,26.30
2016,08,20,14,15,26.30
2016,08,20,14,16,26.30
2016,08,20,14,17,26.30
2016,08,20,14,18,26.30
2016,08,20,14,19,26.30
2016,08,20,14,20,26.30
2016,08,20,14,21,26.30
2016,08,20,14,22,26.30
2016,08,20,14,23,26.30
2016,08,20,14,24,26.40
2016,08,20,14,25,26.30
2016,08,20,14,26,26.40
2016,08,20,14,27,26.40
2016,08,20,14,28,26.40
2016,08,20,14,29,26.40
2016,08,20,14,30,26.40
2016,08,20,14,31,26.30
2016,08,20,14,32,26.30
2016,08,20,14,33,26.40
2016,08,20,14,34,26.40
2016,08,20,14,35,26.40
2016,08,20,14,36,26.40
2016,08,20,14,37,26.50
2016,08,20,14,38,26.60
2016,08,20,14,39,26.70
2016,08,20,14,40,26.80
2016,08,20,14,41,26.90
2016,08,20,14,42,27.00
2016,08,20,14,43,27.10
2016,08,20,14,44,27.20
2016,08,20,14,45,27.30
2016,08,20,14,46,27.40
2016,08,20,14,47,27.50
2016,08,20,14,48,27.60
2016,08,20,14,49,27.60
2016,08,20,14,50,27.70
2016,08,20,14,51,27.70
2016,08,20,14,52,27.70
2016,08,20,14,53,27.70
2016,08,20,14,54,27.70
2016,08,20,14,55,27.70
2016,08,20,14,56,27.70
2016,08,20,14,57,27.70
2016,08,20,14,58,27.70
2016,08,20,14,59,27.60
2016,08,20,15,00,27.60
2016,08,20,15,01,27.60
2016,08,20,15,02,27.60
2016,08,20,15,03,27.50
2016,08,20,15,04,27.60
2016,08,20,15,05,27.60
2016,08,20,15,06,27.60
2016,08,20,15,07,27.60
2016,08,20,15,08,27.70
2016,08,20,15,09,27.70
2016,08,20,15,10,27.80
2016,08,20,15,11,27.80
2016,08,20,15,12,27.80
2016,08,20,15,13,27.80
2016,08,20,15,14,27.80
2016,08,20,15,15,27.80
2016,08,20,15,16,27.80
2016,08,20,15,17,27.80
2016,08,20,15,18,27.80
2016,08,20,15,19,27.80
2016,08,20,15,20,27.70
2016,08,20,15,21,27.70
2016,08,20,15,22,27.70
2016,08,20,15,23,27.60
2016,08,20,15,24,27.60
2016,08,20,15,25,27.60
2016,08,20,15,26,27.70
2016,08,20,15,27,27.70
2016,08,20,15,28,27.70
2016,08,20,15,29,27.80
2016,08,20,15,30,27.80
2016,08,20,15,31,27.80
2016,08,20,15,32,27.80
2016,08,20,15,33,27.80
2016,08,20,15,34,27.80
2016,08,20,15,35,27.80
2016,08,20,15,36,27.80
2016,08,20,15,37,27.80
2016,08,20,15,38,27.80
2016,08,20,15,39,27.80
2016,08,20,15,40,27.70
2016,08,20,15,41,27.70
2016,08,20,15,42,27.70
2016,08,20,15,43,27.70
2016,08,20,15,44,27.80
2016,08,20,15,45,27.80
2016,08,20,15,46,27.80
2016,08,20,15,47,27.80
2016,08,20,15,48,27.80
2016,08,20,15,49,27.70
2016,08,20,15,50,27.70
2016,08,20,15,51,27.70
2016,08,20,15,52,27.70
2016,08,20,15,53,27.70
2016,08,20,15,54,27.70
2016,08,20,15,55,27.70
2016,08,20,15,56,27.60
2016,08,20,15,57,27.60
2016,08,20,15,58,27.60
2016,08,20,15,59,27.50
2016,08,20,16,00,27.50
2016,08,20,16,01,27.40
2016,08,20,16,02,27.40
2016,08,20,16,03,27.30
2016,08,20,16,04,27.30
2016,08,20,16,05,27.30
2016,08,20,16,06,27.30
2016,08,20,16,07,27.30
2016,08,20,16,08,27.30
2016,08,20,16,09,27.30
2016,08,20,16,10,27.30
2016,08,20,16,11,27.40
2016,08,20,16,12,27.40
2016,08,20,16,13,27.40
2016,08,20,16,14,27.40
2016,08,20,16,15,27.50
2016,08,20,16,16,27.50
2016,08,20,16,17,27.60
2016,08,20,16,18,27.60
2016,08,20,16,19,27.60
2016,08,20,16,20,27.70
2016,08,20,16,21,27.70
2016,08,20,16,22,27.60
2016,08,20,16,23,27.60
2016,08,20,16,24,27.60
2016,08,20,16,25,27.60
2016,08,20,16,26,27.50
2016,08,20,16,27,27.50
2016,08,20,16,28,27.50
2016,08,20,16,29,27.50
2016,08,20,16,30,27.40
2016,08,20,16,31,27.40
2016,08,20,16,32,27.40
2016,08,20,16,33,27.40
2016,08,20,16,34,27.40
2016,08,20,16,35,27.40
2016,08,20,16,36,27.50
2016,08,20,16,37,27.50
2016,08,20,16,38,27.60
2016,08,20,16,39,27.60
2016,08,20,16,40,27.70
2016,08,20,16,41,27.70
2016,08,20,16,42,27.70
2016,08,20,16,43,27.80
2016,08,20,16,44,27.80
2016,08,20,16,45,27.80
2016,08,20,16,46,27.80
2016,08,20,16,47,27.80
2016,08,20,16,48,27.80
2016,08,20,16,49,27.80
2016,08,20,16,50,27.80
2016,08,20,16,51,27.80
2016,08,20,16,52,27.90
2016,08,20,16,53,27.90
2016,08,20,16,54,27.90
2016,08,20,16,55,28.00
2016,08,20,16,56,28.00
2016,08,20,16,57,28.10
2016,08,20,16,58,28.10
2016,08,20,16,59,28.10
2016,08,20,17,00,28.10
2016,08,20,17,01,28.10
2016,08,20,17,02,28.00
2016,08,20,17,03,28.00
2016,08,20,17,04,28.00
2016,08,20,17,05,27.90
2016,08,20,17,06,27.90
2016,08,20,17,07,27.90
2016,08,20,17,08,27.90
2016,08,20,17,09,27.90
2016,08,20,17,10,27.90
2016,08,20,17,11,27.90
2016,08,20,17,12,27.90
2016,08,20,17,13,27.80
2016,08,20,17,14,27.80
2016,08,20,17,15,27.80
2016,08,20,17,16,27.80
2016,08,20,17,17,27.80
2016,08,20,17,18,27.80
2016,08,20,17,19,27.80